OpenBCM V1.08-5-g2f4a (Linux)

Packet Radio Mailbox

IZ3LSV

[San Dona' di P. JN]

 Login: GUEST





  
CX2SA  > KEPS     30.05.25 02:40l 348 Lines 16566 Bytes #71 (0) @ AMSAT
BID : ORB25150.1
Read: GUEST
Subj: 2Line Orbital Elements 25150.AMSAT
Path: IZ3LSV<IK6IHL<IK7NXU<HB9ON<HB9ON<PI8ZTM<CX2SA
Sent: 250530/0024Z @:CX2SA.SAL.URY.SOAM #:52225 [Salto] FBB7.00e $:ORB25150.1
From: CX2SA@CX2SA.SAL.URY.SOAM
To  : KEPS@AMSAT


QST de W1STR

AMSAT Orbital Elements for Amateur Satellites in TLE Format
>From Orbital Analysis Office
New England Sci-Tech STEM Education Center
Natick, MA May 30, 2025
To all radio amateurs


These element sets describe the orbits of various satellites
in use by the amateur radio community. For details see:
www.amsat.org/keplerian-elements-formats/

A daily update of element sets is available at:
www.amsat.org/tle/daily-bulletin.txt
or without bulletin text:
www.amsat.org/tle/dailytle.txt


AO-07
1 07530U 74089B   25149.87555499 -.00000050  00000-0 -24052-4 0  9990
2 07530 101.9930 154.0258 0012486 141.1386 291.5344 12.53689304312724
UO-11
1 14781U 84021B   25149.17984393  .00001431  00000-0  15651-3 0  9991
2 14781  97.7538 115.7748 0008454  25.0872 335.0755 14.89353191199944
AO-27
1 22825U 93061C   25149.16870156  .00000118  00000-0  62262-4 0  9995
2 22825  98.7369 210.6668 0009161 140.9094 219.2752 14.30795252652083
FO-29
1 24278U 96046B   25149.44042418  .00000026  00000-0  62375-4 0  9991
2 24278  98.5772  44.7970 0350252  11.6538 349.2452 13.53248070421262
NOAA-15
1 25338U 98030A   25149.80292717  .00000248  00000-0  11962-3 0  9994
2 25338  98.5354 175.1935 0010908  37.1775 323.0159 14.26973220406869
GO-32
1 25397U 98043D   25149.38182615  .00000075  00000-0  52628-4 0  9994
2 25397  98.9698 128.2678 0000577 185.8317 174.2854 14.24312216396693
ISS
1 25544U 98067A   25149.19864947  .00011267  00000-0  20642-3 0  9993
2 25544  51.6390  41.1568 0002109 154.3269 311.4671 15.49816822512213
NO-44
1 26931U 01043C   25149.74821421  .00000153  00000-0  88209-4 0  9999
2 26931  67.0489 155.8458 0005991 275.1863  84.8555 14.31728740235719
SO-50
1 27607U 02058C   25149.21309006  .00001021  00000-0  14505-3 0  9991
2 27607  64.5529 235.6210 0055037 336.6275  23.2329 14.81593687207547
CO-55
1 27844U 03031E   25149.29686635  .00000329  00000-0  16237-3 0  9994
2 27844  98.6757 157.7162 0008861 214.0717 145.9894 14.23987354137033
CO-57
1 27848U 03031J   25148.74792050  .00000268  00000-0  13746-3 0  9990
2 27848  98.6787 157.1890 0008467 234.9559 125.0826 14.23322762136689
RS-22
1 27939U 03042A   25149.87894095  .00001201  00000-0  19813-3 0  9999
2 27939  98.3274 319.0730 0012360  48.8414  87.2594 14.72326768159252
NOAA-18
1 28654U 05018A   25149.79267482  .00000256  00000-0  15889-3 0  9992
2 28654  98.8423 229.3900 0014790 156.2323 203.9535 14.13605355 32228
CO-58
1 28895U 05043F   25149.36263797  .00001497  00000-0  25229-3 0  9992
2 28895  98.2484 293.5737 0014055 347.7331  12.3531 14.70976235 45297
CO-65
1 32785U 08021C   25149.56381761  .00005195  00000-0  37709-3 0  9993
2 32785  97.7849 120.6480 0007790 244.5491 115.4929 15.04319580927425
CO-66
1 32791U 08021J   25149.89733243  .00014831  00000-0  72263-3 0  9993
2 32791  97.7273 129.7031 0003519 171.5269 188.6024 15.18444401928955
RS-30
1 32953U 08025A   25149.77878378  .00000040  00000-0  21870-3 0  9998
2 32953  82.5037 233.8930 0020388  71.8436 288.4862 12.43164668772192
NOAA-19
1 33591U 09005A   25149.86817943  .00000203  00000-0  13211-3 0  9998
2 33591  98.9976 214.5124 0014295  38.2884 321.9300 14.13368616840597
SRMSAT
1 37841U 11058D   25149.56129689  .00000410  00000-0  79189-4 0  9998
2 37841  19.9709 221.2304 0011669 304.4946  83.4400 14.11432493703558
ZACUBE-1
1 39417U 13066B   25149.62128437  .00006096  00000-0  52973-3 0  9994
2 39417  97.7798 106.6939 0046221  88.8694 271.7822 14.96529839623270
Delfi-N3xt
1 39428U 13066N   25149.53543467  .00009796  00000-0  99613-3 0  9992
2 39428  97.8361  67.3106 0086452  37.9302 322.7962 14.88198502617612
GOMX-1
1 39430U 13066Q   25149.37262012  .00001611  00000-0  25732-3 0  9990
2 39430  97.6847   8.7250 0131357 227.9308 131.0665 14.67591346613766
LO-74
1 39440U 13066AA  25149.26028916  .00003565  00000-0  36434-3 0  9993
2 39440  97.8497  93.9003 0060979 216.2713 143.4364 14.89854759619756
AO-73
1 39444U 13066AE  25149.35684869  .00007892  00000-0  59176-3 0  9997
2 39444  97.7842 111.2283 0044280  66.1356 294.4500 15.02154175621909
DTUSAT-2
1 40030U 14033W   25149.87484507  .00008210  00000-0  53564-3 0  9999
2 40030  98.0544 121.1779 0010927  95.3822 264.8651 15.08106747595296
EO-80
1 40032U 14033Y   25149.16592385  .00006773  00000-0  44200-3 0  9996
2 40032  98.0432 120.1058 0010082  48.4254 311.7836 15.08178334594650
LILACSAT-2
1 40908U 15049K   25149.81484042  .00013987  00000-0  36786-3 0  9993
2 40908  97.5058 169.9035 0009141 186.5820 173.5307 15.38651442536576
IO-86
1 40931U 15052B   25103.16584653  .00001824  00000-0  15574-3 0  9999
2 40931   5.9984   7.7323 0012484  15.4851 344.5658 14.78734415515920
Horyu-4
1 41340U 16012D   25148.46088537  .00021149  00000-0  57401-3 0  9990
2 41340  30.9960 213.4095 0006306 286.1964  73.7988 15.36347029510925
Lapan A3
1 41603U 16040E   25149.83881211  .00003631  00000-0  12825-3 0  9992
2 41603  97.1367 154.8690 0009475 315.2475  44.8001 15.29783614496141
CAS-2T
1 41847U 16066G   25149.45206255  .00001273  00000-0  19070-3 0  9996
2 41847  98.4203 224.0114 0345667 212.0026 145.9754 14.43439714449417
CAS-4B
1 42759U 17034B   25149.85762737  .00069342  00000-0  76525-3 0  9990
2 42759  43.0083  25.7265 0020658 220.5540 139.3785 15.61910919440920
CAS-4A
1 42761U 17034D   25149.83529212  .00079462  00000-0  83452-3 0  9991
2 42761  43.0123  23.1286 0021999 224.4889 135.4209 15.63089111440944
TechnoSat
1 42829U 17042E   25149.51600049  .00002991  00000-0  23436-3 0  9997
2 42829  97.3918 318.7601 0012858 319.0353  40.9905 15.01655650429060
AO-91
1 43017U 17073E   25149.35386285  .00006859  00000-0  35490-3 0  9996
2 43017  97.5257  20.4137 0172357 204.2544 155.0500 15.04521925407523
S-Net D
1 43186U 18014G   25149.18044431  .00004516  00000-0  26881-3 0  9996
2 43186  97.5638  52.2037 0007216 263.7433  96.2975 15.11708846400659
S-Net B
1 43187U 18014H   25149.18568887  .00004693  00000-0  27933-3 0  9998
2 43187  97.5646  52.1801 0007940 257.8166 102.2175 15.11689801400657
S-Net A
1 43188U 18014J   25149.18086274  .00004605  00000-0  27401-3 0  9997
2 43188  97.5653  52.3237 0007811 258.7972 101.2380 15.11714258400655
S-Net C
1 43189U 18014K   25148.98947182  .00004514  00000-0  26878-3 0  9995
2 43189  97.5671  52.1466 0009406 250.9671 109.0541 15.11683836399176
Ten-Koh
1 43677U 18084G   25149.32635193  .00002243  00000-0  18309-3 0  9996
2 43677  98.0875 321.1364 0005123 309.9346  50.1426 15.00520357358553
PO-101
1 43678U 18084H   25149.83663698  .00003120  00000-0  26756-3 0  9994
2 43678  98.1033 325.5505 0006884 335.1514  24.9375 14.98285931358777
QO-100
1 43700U 18090A   25149.80553422  .00000140  00000-0  00000+0 0  9996
2 43700   0.0162 309.5554 0001548 141.6280 112.1897  1.00274084 24074
MinXSS-2
1 43758U 18099A   25149.44176387  .00017180  00000-0  68208-3 0  9999
2 43758  97.5021 215.4435 0012196 187.0375 173.0693 15.25341919355278
AO-95
1 43770U 18099N   25149.56818596  .00011672  00000-0  59262-3 0  9991
2 43770  97.4913 207.7767 0009283 245.0488 114.9782 15.17022078354888
RANGE-A
1 43773U 18099R   25149.39433871  .00004332  00000-0  27781-3 0  9990
2 43773  97.4486 198.1208 0010163 222.9595 137.0841 15.08979074354532
MOVE-II
1 43780U 18099Y   25149.46758920  .00222714  00000-0  17194-2 0  9993
2 43780  97.4650 224.2779 0006544 191.5549 168.5564 15.71238443356053
SNUSat 2
1 43782U 18099AA  25149.57301161  .00010110  00000-0  55237-3 0  9994
2 43782  97.4594 204.6224 0012177 184.3629 175.7499 15.14435930354835
SnugLite
1 43784U 18099AC  25149.13926045  .00009069  00000-0  45760-3 0  9993
2 43784  97.4412 203.7344 0003884 167.6751 192.4578 15.17337286354904
ITASat 1
1 43786U 18099AE  25149.56626062  .00008137  00000-0  46631-3 0  9991
2 43786  97.4565 204.1580 0013061 240.4906 119.5023 15.12784087354794
EAGLET 1
1 43790U 18099AJ  25149.54286524  .00004851  00000-0  31073-3 0  9992
2 43790  97.4768 204.1281 0010985 220.5320 139.5092 15.08955255354401
ESEO
1 43792U 18099AL  25149.08095179  .00002680  00000-0  20552-3 0  9995
2 43792  97.4479 197.0910 0012538 199.6544 160.4200 15.02567165354093
CSIM
1 43793U 18099AM  25149.12909351  .00232716  00000-0  18662-2 0  9990
2 43793  97.4820 226.1673 0006894 182.1433 177.9801 15.70290645355841
JO-97
1 43803U 18099AX  25148.67442083  .00012117  00000-0  55610-3 0  9991
2 43803  97.4664 207.8590 0008046 174.3155 185.8173 15.20536965354963
Suomi 100
1 43804U 18099AY  25149.39487536  .00010253  00000-0  50412-3 0  9998
2 43804  97.4726 207.9009 0012796 179.2242 180.9014 15.18148911355000
ISAT
1 43879U 18111D   25148.72010565  .00020339  00000-0  71388-3 0  9996
2 43879  97.5972  62.8551 0006864 230.0986 129.9651 15.29429310351885
UWE-4
1 43880U 18111E   25149.65347277  .00017880  00000-0  70533-3 0  9992
2 43880  97.5911  62.3625 0010037 244.8076 115.2121 15.25571696349964
Sparrow
1 43881U 18111F   25149.23452178  .00022284  00000-0  75315-3 0  9991
2 43881  97.6115  66.2145 0004567 282.4944  77.5785 15.30652674352057
Prox-1
1 44339U 19036A   25149.28959332  .00011323  00000-0  14384-2 0  9996
2 44339  23.9955 135.9445 0006716 303.7370  56.2487 14.79718773316345
SONATE
1 44400U 19038Q   25149.70200058  .00269069  28266-4  96768-3 0  9995
2 44400  97.6887 175.2735 0004397 221.7522 138.3415 15.88694941327847
Taurus 1
1 44530U 19059C   25149.87257075  .00007906  00000-0  14595-2 0  9990
2 44530  98.6067 288.7585 0010316  76.1747 284.0602 14.65711906302377
Duchifat 3
1 44854U 19089C   25149.84013392  .00051648  00000-0  10382-2 0  9993
2 44854  36.9443  63.4369 0004540 250.6782 109.3483 15.45611798301289
